Wind_Speed
10 10 9 8 7 5 4 4 4 4 5 5 5 4 4 5 5 6 6 6 6 6 6 6 7 7 7 6 5 5 4 4 5 8 10 12 18 23 27 27 24 20 17 14 13 12 10 8 7 6 6 7 8 8 8 8 9 10 10 8 10 11 10 10 9 8 8 6 5 5 4 5 4 4 3 4 4 5 5 5 5 4 3 3 3 3 4 8
10 10 10 10 9 8 6 5 5 5 6 6 5 5 5 5 5 5 6 6 6 6 5 6 7 7 7 6 6 5 4 4 5 8 10 9 15 21 26 27 22 19 16 14 13 12 11 9 7 6 6 7 7 8 8 8 10 10 8 9 10 9 9 10 9 10 9 7 6 6 5 5 5 4 4 4 3 4 4 5 5 4 3 3 4 5 6 9
9 9 10 10 10 9 8 7 7 7 7 7 6 6 5 5 5 5 6 6 6 6 6 7 7 8 7 7 6 5 4 5 6 8 9 9 13 20 26 26 21 19 16 14 13 14 12 9 7 5 6 6 6 6 8 8 8 9 9 9 8 8 9 10 10 11 11 10 8 7 6 5 5 4 4 4 3 3 3 3 4 4 3 4 5 5 7 9
7 8 9 9 10 9 9 8 8 8 8 8 8 7 6 5 5 5 6 6 6 6 7 7 8 8 8 7 6 5 4 4 5 8 9 10 13 19 26 25 20 19 17 15 14 14 11 9 7 5 7 5 5 6 7 6 6 7 9 8 6 7 8 9 11 12 12 12 11 9 8 6 5 5 4 3 4 4 3 1 3 3 3 5 6 6 7 8
6 6 7 8 9 9 9 9 9 9 10 10 10 8 7 6 5 5 6 6 6 6 7 7 8 8 9 8 7 6 5 2 5 9 10 11 13 20 26 24 20 19 17 15 14 14 11 8 7 5 5 4 5 6 5 4 6 7 7 7 7 8 7 9 11 12 13 13 13 12 10 8 6 6 5 3 3 1 1 0 2 3 5 6 7 7 7 8
5 5 6 8 9 9 9 9 9 10 11 12 11 10 8 7 7 6 6 6 6 7 7 7 8 8 9 9 8 8 7 4 6 9 11 12 14 21 26 24 21 20 17 15 15 14 10 8 7 5 3 3 3 4 3 3 6 6 6 6 7 8 7 8 10 12 13 13 14 13 11 9 8 7 5 4 2 0 1 1 2 3 5 6 7 8 8 7
4 5 6 7 8 8 8 9 9 9 10 11 11 10 9 8 7 7 6 6 7 7 7 7 8 8 9 9 9 9 9 7 7 9 12 12 14 22 26 24 22 20 18 16 15 13 10 8 6 4 2 2 1 3 3 3 4 6 6 4 5 7 7 8 9 11 12 13 13 13 12 11 10 8 5 4 4 2 2 2 2 3 5 6 7 8 9 8
3 5 6 6 7 7 7 7 8 8 9 10 10 10 9 8 7 7 7 7 7 6 7 7 7 8 8 9 10 9 9 9 8 10 13 13 14 21 26 24 23 22 19 17 16 13 9 7 6 5 1 2 1 2 3 4 3 4 5 3 2 5 6 7 9 10 11 12 13 13 12 11 10 8 6 5 4 3 2 2 2 4 5 6 7 8 9 9
2 4 5 6 6 7 7 7 7 7 8 8 9 9 8 7 7 7 7 7 7 6 7 7 7 8 9 10 10 8 9 10 9 11 13 13 15 21 25 24 24 22 20 18 16 13 9 8 7 6 3 2 2 1 2 4 2 3 4 3 3 4 6 7 8 10 11 11 13 13 11 9 8 8 8 6 4 2 3 3 2 4 5 6 8 8 9 9
2 3 5 6 6 7 7 8 8 8 7 8 8 7 7 7 7 7 7 8 7 7 7 7 7 9 9 11 9 6 10 12 10 12 14 13 15 21 25 25 25 23 20 19 16 13 11 10 9 7 4 3 2 1 1 2 2 2 4 4 4 5 7 8 9 10 11 11 12 12 10 7 7 7 7 6 5 3 3 3 3 4 5 6 8 9 9 10
2 3 4 6 7 7 7 8 8 8 7 7 7 7 7 7 6 7 8 8 7 6 7 7 8 9 10 12 11 7 12 12 10 13 15 14 15 20 25 26 26 24 21 19 17 15 14 12 10 6 3 4 2 2 3 2 2 2 4 5 6 7 7 9 11 11 11 11 10 10 7 4 5 6 5 6 6 5 4 3 2 3 4 6 8 9 9 10
2 3 4 6 7 7 7 8 8 8 8 8 7 7 7 6 6 7 8 8 6 6 7 7 8 10 10 12 13 11 12 12 11 12 14 16 15 18 25 27 26 25 23 20 19 18 16 14 12 8 6 5 2 3 6 6 4 3 4 5 7 8 8 10 12 12 12 11 9 8 5 3 4 5 5 6 6 6 5 3 2 2 3 5 8 10 10 11
2 3 4 5 6 7 7 8 8 8 8 8 7 7 7 7 6 7 8 8 6 6 7 7 8 9 10 11 13 12 11 12 12 12 13 15 15 16 22 27 28 27 26 25 23 21 18 15 13 11 10 6 3 5 6 6 5 4 5 5 6 4 4 10 13 12 12 11 10 8 4 3 4 3 4 5 6 7 6 5 3 2 1 4 7 9 10 11
2 2 3 5 6 6 7 8 9 9 9 8 8 7 7 7 7 7 8 8 6 6 7 8 8 10 11 11 12 12 12 13 13 12 12 14 16 16 19 25 29 28 27 26 24 22 20 17 15 12 10 8 7 6 5 8 6 5 6 4 4 3 3 9 12 11 12 12 10 8 4 3 3 3 3 4 5 6 7 7 3 2 1 2 7 9 9 9
2 3 3 4 5 6 7 8 8 9 9 9 8 8 8 8 8 7 8 8 7 7 8 9 10 11 12 11 12 12 12 13 13 12 12 14 16 17 17 21 27 29 28 27 25 23 21 18 16 13 12 11 8 7 7 8 7 6 7 4 3 3 4 9 10 10 11 11 11 7 5 4 4 5 3 4 5 5 6 6 4 2 1 2 5 7 8 8
3 3 4 4 4 5 6 7 8 9 9 9 8 8 8 8 8 8 8 8 7 7 8 10 11 13 13 11 11 11 11 12 12 12 12 13 16 18 17 18 24 28 28 28 26 24 22 20 18 16 14 10 7 8 8 8 8 6 6 5 3 4 5 6 9 11 11 12 11 8 7 5 7 10 7 6 6 5 5 4 4 3 1 2 3 5 6 7
2 3 4 4 4 4 6 7 8 9 9 9 9 8 8 7 8 8 8 8 8 8 9 11 14 14 11 10 11 11 10 10 10 11 11 13 16 17 17 18 21 25 27 28 27 26 24 21 19 16 13 11 8 8 8 8 7 5 4 6 5 6 7 5 8 11 11 12 12 11 12 7 6 11 9 7 7 6 6 5 3 3 2 3 3 4 5 5
2 2 4 4 4 5 6 6 7 8 9 9 9 8 8 7 8 8 8 8 8 8 9 12 15 12 7 9 11 11 10 9 10 10 11 12 15 17 19 18 19 22 24 25 26 26 23 20 19 14 10 12 11 10 10 6 4 4 4 7 7 7 8 6 8 11 12 12 12 12 14 8 5 10 10 9 9 9 8 7 6 4 3 4 4 5 5 5
2 2 3 4 4 5 6 6 7 7 8 9 9 9 8 8 8 9 9 9 10 10 9 13 17 12 8 10 11 10 8 8 9 9 10 12 14 16 19 18 18 18 19 21 22 23 22 18 18 15 13 13 11 11 10 6 6 7 8 10 10 9 9 7 9 12 12 13 13 13 13 11 8 9 12 12 11 11 10 10 9 6 5 5 5 6 6 6
2 2 3 3 4 4 5 6 7 7 7 8 9 10 9 9 7 8 10 10 11 12 11 15 19 14 10 11 11 9 7 6 6 8 10 11 13 16 18 18 17 16 16 15 14 21 23 18 17 17 14 12 11 12 12 9 9 9 10 11 11 11 9 9 11 11 11 13 13 12 14 14 11 8 12 15 13 12 11 11 11 9 8 7 7 8 8 8
3 3 3 3 4 4 5 6 6 7 7 7 9 10 11 10 8 8 11 11 11 13 11 14 18 14 9 11 11 8 7 6 6 8 10 12 13 14 16 17 15 14 16 17 14 21 25 20 18 16 13 13 14 15 16 13 12 11 12 11 11 11 9 10 12 10 11 13 12 14 16 16 13 10 13 17 16 15 13 11 12 11 11 11 10 10 10 11
4 3 3 3 4 4 5 6 6 7 7 8 9 10 12 12 11 10 11 11 11 13 11 12 16 13 8 10 10 7 6 6 6 8 9 12 13 11 12 15 13 11 16 21 18 18 21 21 19 14 16 21 20 20 19 15 14 14 12 12 11 10 9 10 11 11 11 13 14 16 18 16 13 11 15 17 17 16 15 13 13 13 13 13 12 12 12 13
2 3 3 3 4 5 5 5 6 7 8 8 9 11 12 12 12 12 12 10 10 12 11 11 14 13 9 10 9 6 5 5 6 6 7 10 12 12 12 12 12 11 14 17 17 15 16 17 16 17 23 24 20 20 20 17 16 15 13 13 11 8 8 7 10 13 13 13 14 15 16 13 10 10 13 16 16 15 15 14 14 14 15 14 14 14 15 15
1 1 2 3 4 5 5 5 6 7 8 9 9 11 12 13 13 13 13 10 8 11 11 11 14 12 11 11 9 6 5 6 6 6 6 9 11 11 10 10 11 12 12 13 15 15 13 13 15 18 22 20 15 15 16 15 14 14 15 15 12 9 9 9 11 14 14 13 11 13 13 8 6 8 9 11 12 12 12 14 15 15 15 16 16 16 15 14
1 1 1 2 3 4 5 5 6 7 7 8 9 10 11 12 13 12 12 9 6 9 10 11 13 12 11 11 8 8 7 7 7 6 6 8 9 8 8 12 11 9 10 13 14 14 13 16 17 13 11 12 12 11 11 13 13 13 14 14 13 12 12 11 11 12 12 9 7 11 10 4 3 5 7 7 8 9 10 12 13 14 15 16 18 18 15 14
2 1 3 2 3 3 5 6 6 7 7 7 8 9 10 11 11 11 11 8 6 8 9 10 12 13 13 11 9 10 8 6 8 8 6 7 9 8 7 9 8 8 10 11 12 13 13 16 15 9 7 9 10 11 11 12 13 11 9 11 11 10 10 10 9 10 10 7 8 11 9 6 7 5 7 9 8 9 11 10 11 12 13 14 16 18 17 14
2 2 3 4 4 3 5 6 6 6 7 7 8 9 10 10 11 12 11 7 6 8 10 11 12 14 15 13 11 10 6 8 9 7 7 7 7 7 6 5 5 7 8 8 9 11 13 13 13 12 9 9 10 11 10 10 12 9 6 10 10 8 9 9 8 10 9 8 10 10 7 8 9 6 8 11 9 8 10 11 12 12 12 11 13 16 16 15
3 2 3 5 5 4 5 7 6 6 7 7 8 10 11 12 14 14 9 4 5 7 10 12 12 15 16 14 14 11 8 9 8 7 8 8 6 7 6 5 5 5 5 7 7 5 8 12 13 12 10 10 11 9 7 8 10 9 7 10 10 8 9 9 9 8 6 7 8 6 6 7 8 7 8 9 8 6 7 12 13 11 12 11 12 13 14 15
2 3 4 6 6 4 5 6 6 7 7 8 9 11 13 14 15 12 5 1 7 8 9 10 11 14 16 15 16 12 9 10 8 7 9 8 7 7 5 6 5 5 6 10 8 4 7 14 14 12 11 10 9 8 8 7 7 8 7 8 9 10 9 6 7 7 5 8 8 5 6 7 6 8 7 6 7 4 4 10 13 10 11 12 13 13 14 16
1 4 5 6 6 5 5 6 7 7 7 8 10 13 15 15 13 8 4 4 8 8 9 12 12 14 16 15 15 11 9 11 9 9 10 7 6 7 5 5 4 4 6 9 11 8 9 15 17 15 14 11 9 9 10 8 7 6 5 6 8 8 6 5 5 6 6 8 7 6 7 7 6 6 5 5 8 7 5 8 11 12 13 12 13 14 14 15
2 4 6 6 6 6 5 7 8 7 7 9 12 14 14 12 6 4 4 8 9 8 10 12 12 14 17 15 12 12 11 10 9 9 9 6 6 5 4 4 3 5 7 10 12 10 11 16 19 18 15 12 10 10 10 10 8 7 5 7 9 8 7 8 7 6 8 7 5 6 7 7 7 6 6 7 9 11 11 10 12 14 15 14 13 12 12 13
3 5 6 6 6 6 6 7 8 8 8 9 12 14 11 7 2 0 7 10 7 9 9 10 11 13 17 14 10 12 12 9 9 10 8 6 7 7 6 5 5 6 8 8 9 10 12 15 16 16 16 14 12 10 11 12 11 10 8 9 11 9 7 8 7 7 8 5 4 8 9 7 7 6 8 9 9 11 13 13 12 13 14 13 13 12 11 11
3 4 5 6 6 5 5 7 9 8 9 10 13 13 7 4 3 6 8 6 6 10 10 10 11 13 16 14 11 13 12 9 10 9 7 6 7 7 7 6 6 7 6 4 6 8 11 14 15 17 18 17 16 13 12 12 12 13 12 11 12 8 5 6 5 6 7 3 4 9 10 7 6 5 7 8 8 10 13 14 13 12 13 12 11 12 11 11
4 4 4 5 5 5 5 7 9 8 9 12 13 10 3 3 6 8 6 4 7 12 11 11 13 15 17 14 12 14 12 10 11 9 6 6 6 7 7 5 5 7 6 6 7 7 9 10 13 16 16 16 19 18 14 10 9 12 12 13 14 11 8 6 5 5 5 2 3 6 6 5 4 5 8 9 7 8 10 12 13 12 12 11 10 11 11 11
4 4 4 4 4 5 5 7 9 8 10 13 11 5 3 4 7 6 4 6 7 8 9 12 14 14 15 13 13 15 12 8 10 9 7 7 6 5 6 5 4 6 7 8 6 5 9 9 8 12 14 12 14 16 15 14 12 11 11 13 15 13 10 8 7 7 7 5 4 4 5 7 8 7 8 7 5 6 7 8 10 11 10 11 10 10 11 11
5 4 4 4 5 5 6 8 9 9 13 14 8 2 4 7 6 4 5 8 7 7 9 11 13 12 13 12 12 14 13 8 8 10 9 8 7 5 5 5 6 6 8 8 5 6 9 6 5 10 13 14 12 10 14 15 11 9 11 15 15 12 11 10 7 6 8 8 4 4 7 7 6 5 6 7 5 6 8 7 6 8 8 9 10 10 12 12
5 4 3 3 4 5 7 9 10 11 15 13 5 5 8 7 7 7 8 9 9 12 10 9 11 11 11 12 11 11 12 10 7 9 9 8 7 6 5 5 6 7 10 10 8 7 9 7 6 7 9 14 15 11 11 13 13 11 10 11 13 11 10 8 7 6 6 6 3 5 9 7 4 2 3 6 5 5 9 7 5 6 8 8 10 11 12 13
6 6 4 2 3 5 8 9 11 13 14 10 5 8 10 6 6 9 9 9 11 12 7 5 10 11 8 9 10 9 11 10 8 9 9 7 6 6 5 4 5 6 8 10 8 7 9 9 8 9 7 9 11 9 8 9 13 17 12 9 10 10 8 8 8 7 5 5 4 4 6 6 4 6 7 6 5 5 7 7 5 6 7 9 11 11 12 12
7 7 4 3 3 5 7 8 11 14 12 8 5 7 9 8 7 8 8 9 11 9 3 4 9 10 8 7 7 9 9 8 8 9 8 7 6 7 7 6 6 6 6 6 8 9 9 8 7 9 8 8 9 9 9 6 8 15 16 12 10 9 8 8 9 8 5 5 4 2 4 4 3 4 8 6 6 5 5 6 5 6 7 9 10 12 13 13
7 6 3 3 4 5 7 8 12 13 9 7 7 7 9 9 8 7 7 8 8 7 5 5 7 7 8 7 6 8 8 6 7 7 7 7 6 7 9 8 7 8 7 6 8 9 8 8 8 7 8 10 10 9 8 6 5 10 14 14 11 10 8 8 9 10 9 7 4 3 6 4 3 2 7 6 5 4 3 6 7 6 7 8 9 12 13 13
8 6 3 4 5 6 8 9 11 11 8 8 9 9 9 9 9 8 7 7 7 7 7 7 7 7 7 6 5 6 6 5 5 5 4 6 6 3 6 8 6 7 7 5 7 8 8 9 11 10 12 14 11 7 7 8 7 9 13 14 13 12 10 9 7 9 10 10 8 5 6 4 1 5 7 4 5 5 4 6 8 7 8 8 9 11 12 12
7 4 4 6 6 8 10 10 11 11 9 9 9 9 9 9 9 9 7 7 7 7 7 7 7 8 8 6 6 5 5 4 4 4 3 5 8 5 4 5 4 3 2 2 6 9 10 10 12 13 15 15 11 9 12 12 8 10 13 13 12 12 13 12 8 6 8 10 9 6 5 5 4 5 6 4 6 6 5 6 8 8 9 9 10 11 11 12
6 5 5 7 8 10 10 9 9 10 11 11 9 8 8 8 8 8 6 6 5 5 5 5 5 6 6 6 5 4 4 4 4 4 4 5 7 8 5 3 3 2 1 2 4 7 9 10 11 14 14 15 13 11 12 12 10 11 13 12 12 12 12 13 9 7 9 9 8 6 5 6 7 6 6 4 7 8 6 5 8 9 9 10 10 10 10 11
4 4 6 7 8 9 9 7 8 9 10 10 8 7 7 6 6 6 5 5 5 4 3 4 4 4 4 4 3 2 3 3 3 4 5 4 4 7 6 3 4 3 3 3 3 5 6 7 10 12 12 13 13 9 9 10 10 11 10 11 14 13 12 13 9 9 11 9 9 10 5 3 6 6 6 6 9 10 8 6 7 9 10 10 10 9 10 10
3 4 6 7 8 7 6 8 8 8 9 8 6 5 5 4 4 4 4 4 4 4 4 4 4 4 4 3 1 2 3 2 2 4 5 2 4 8 6 5 6 6 6 6 5 6 7 8 9 10 9 10 9 6 6 8 10 11 10 11 14 13 12 12 9 10 10 6 7 12 10 8 9 8 7 9 12 12 11 8 8 9 10 10 9 9 9 9
4 4 5 6 8 7 6 8 8 7 8 7 5 5 4 3 3 4 4 4 4 5 5 5 5 4 3 2 0 2 3 3 3 4 5 3 5 8 8 7 6 7 8 9 8 7 8 9 11 12 11 11 11 9 8 9 12 14 14 13 12 11 11 10 9 9 9 7 9 13 13 13 14 11 7 8 11 12 13 11 9 10 10 9 9 9 9 9
5 5 5 7 8 7 7 8 9 8 7 7 6 6 5 5 4 4 5 5 4 5 5 5 6 5 5 4 2 2 4 5 5 6 8 8 9 9 9 10 10 9 9 10 9 8 7 8 11 13 12 12 14 14 12 13 14 14 15 15 14 12 11 11 11 8 7 10 9 7 8 12 12 10 8 8 11 12 13 12 10 10 10 9 9 9 8 9
4 5 5 7 8 9 9 9 9 8 8 8 8 8 7 7 6 6 6 6 6 7 5 5 8 8 8 8 6 5 7 7 6 8 10 10 12 10 8 9 12 12 10 10 10 8 8 9 10 11 13 12 12 14 15 16 15 14 15 15 15 13 12 13 14 9 8 12 10 7 9 11 10 10 9 10 12 12 12 12 11 10 9 8 8 8 8 8
3 4 5 6 7 9 9 8 8 8 7 7 8 8 9 9 8 8 8 7 8 8 7 7 9 10 10 11 9 9 10 8 7 10 13 13 13 12 10 9 10 12 11 11 12 11 10 10 10 11 14 15 12 12 14 15 15 14 16 15 14 14 14 14 14 12 12 14 12 11 14 13 10 11 11 12 13 13 13 12 10 10 9 7 8 8 8 8
3 4 4 6 6 7 7 7 7 6 6 6 6 7 8 8 8 8 8 7 7 8 8 8 10 10 11 12 11 12 13 13 12 14 17 16 15 16 16 13 13 15 15 13 13 14 12 10 11 12 14 15 13 11 12 11 12 14 15 16 16 16 15 14 14 13 13 13 12 11 12 11 9 11 13 13 13 14 14 11 9 9 8 7 7 7 8 7
2 3 3 4 4 4 5 5 5 4 4 5 6 6 7 7 7 7 7 8 8 8 8 8 9 10 11 11 13 14 15 16 17 17 19 19 18 18 18 18 18 20 18 16 17 17 14 12 11 12 14 15 13 11 11 11 13 16 16 16 17 17 16 16 14 12 12 12 11 9 10 12 12 12 13 12 12 14 14 10 9 10 8 8 7 8 8 7
3 2 2 2 2 2 3 3 3 3 4 5 5 6 6 7 7 7 7 8 10 9 10 11 11 11 12 12 14 16 16 16 17 18 19 20 20 21 20 19 20 20 19 19 19 18 17 14 12 11 13 15 13 10 11 12 14 16 15 16 18 17 15 15 12 11 12 12 10 9 11 13 13 13 12 10 10 12 13 11 9 11 10 9 8 9 9 7
Wind_Direction
245 240 237 234 232 230 229 226 218 210 208 210 206 202 198 193 192 191 194 199 202 204 203 203 198 190 183 177 176 177 178 171 168 175 179 184 185 180 173 173 174 174 171 167 165 160 149 138 124 101 82 64 48 41 40 46 61 61 45 44 57 43 36 45 36 35 51 41 36 49 40 32 33 30 47 85 91 77 63 50 52 49 69 106 110 122 137 131
243 237 234 231 228 227 224 224 219 215 213 214 212 208 204 200 201 201 203 204 206 206 205 205 197 189 184 181 182 180 176 172 176 186 189 187 185 179 173 172 173 172 169 166 167 158 145 138 125 103 87 61 35 35 42 55 65 61 50 53 53 41 41 47 48 51 51 47 47 49 41 30 28 21 24 45 63 67 68 64 64 59 79 108 115 130 135 134
243 235 230 226 225 223 221 223 221 219 218 220 222 220 217 212 214 214 213 214 214 214 213 211 200 194 192 191 192 186 182 183 190 195 193 184 182 178 173 172 173 172 170 171 168 154 144 139 128 114 93 57 18 32 44 50 58 59 55 52 44 40 43 44 49 51 51 49 46 44 41 37 31 28 31 37 47 50 65 92 90 71 93 127 127 131 137 141
243 234 225 220 219 219 219 220 221 221 220 223 226 228 227 225 229 228 225 224 221 222 221 215 206 202 201 200 199 190 184 193 207 200 192 184 179 176 173 173 174 174 174 174 166 151 144 139 133 124 97 49 3 33 42 49 61 55 50 43 38 42 39 38 45 45 45 47 43 40 36 36 28 25 32 42 53 25 7 112 122 101 118 139 138 134 140 152
241 233 222 214 212 213 216 219 221 221 219 222 226 230 233 235 243 242 238 233 227 227 224 217 211 207 206 206 202 190 166 163 216 201 190 184 176 174 174 175 176 177 177 173 163 151 145 141 134 123 89 35 11 30 32 60 68 54 43 42 45 45 40 34 40 41 40 41 39 37 33 34 27 21 23 25 74 70 311 92 134 137 144 148 149 142 143 162
236 229 218 210 209 210 216 220 223 222 219 219 222 230 236 241 247 248 244 236 230 227 222 217 211 208 209 207 202 192 169 157 202 195 185 182 176 174 174 176 179 179 179 174 165 156 150 144 135 124 77 13 23 43 42 71 68 59 32 29 44 43 44 34 33 37 36 36 33 31 28 30 29 25 16 354 21 215 296 48 126 169 170 163 160 150 144 165
229 222 215 211 210 214 218 219 220 219 217 215 217 225 233 240 243 244 239 230 227 222 217 215 209 208 207 204 201 196 188 184 193 187 181 179 177 177 175 178 181 181 180 174 168 165 160 151 144 137 89 353 13 55 62 84 68 57 20 1 38 35 39 32 28 30 28 30 28 26 22 20 24 22 11 358 8 3 347 46 120 168 178 174 172 162 151 165
224 216 214 213 212 215 213 210 208 207 207 206 210 218 225 231 233 234 229 223 223 218 216 213 209 207 201 201 199 193 196 193 189 185 181 177 179 180 179 181 183 183 180 175 176 177 174 166 160 147 99 301 174 70 68 88 41 20 4 336 11 18 27 25 20 22 19 20 19 22 22 14 14 12 13 17 21 27 33 61 117 158 169 174 178 171 163 169
216 213 210 211 210 208 203 198 193 191 193 195 201 209 214 218 220 222 218 217 220 219 219 213 208 202 194 197 192 187 196 194 190 186 180 177 179 182 182 184 185 183 181 179 183 186 189 187 180 166 174 238 163 91 84 90 345 334 7 334 328 349 6 15 14 14 13 14 14 18 20 13 9 14 25 27 26 43 69 85 120 161 169 174 179 175 172 175
203 205 205 209 207 203 198 193 186 182 184 187 194 199 202 206 209 212 210 211 219 224 219 211 205 194 191 191 175 182 202 192 188 186 182 179 179 183 185 187 187 185 184 184 189 197 202 198 191 179 179 221 203 230 156 84 296 304 9 345 340 352 356 7 9 7 6 7 10 14 14 11 10 25 33 20 24 43 64 86 118 156 181 182 177 178 177 176
194 195 199 204 204 203 198 192 186 180 180 181 186 189 193 198 201 206 204 207 218 222 213 206 199 190 189 184 167 183 201 187 183 185 184 182 180 184 186 188 189 188 188 190 198 206 208 202 192 185 203 232 227 277 272 270 282 305 5 355 351 2 8 10 6 1 358 357 9 19 17 12 9 29 33 11 25 40 50 68 96 139 184 190 181 183 179 177
180 188 193 200 202 202 199 195 188 181 179 178 182 185 188 192 193 200 200 205 216 214 206 198 195 189 185 186 184 189 190 183 182 181 184 187 184 186 189 191 193 192 192 197 206 210 210 207 200 200 212 214 231 286 267 263 271 296 351 346 332 354 9 6 3 358 357 354 2 16 22 26 8 16 22 9 23 30 38 58 62 97 175 188 187 188 183 184
154 173 186 196 198 198 198 197 193 188 185 183 187 189 191 192 191 196 197 203 211 203 196 192 192 187 179 185 193 189 184 187 187 181 185 190 189 189 192 194 197 198 197 201 207 210 211 210 207 213 215 213 248 247 250 279 291 301 324 317 309 326 341 346 353 353 357 358 360 5 1 19 5 354 5 359 14 22 25 40 59 82 157 180 185 191 191 192
148 153 173 189 194 193 194 197 197 196 194 191 193 195 196 195 192 194 195 200 206 194 188 188 187 180 172 177 183 184 188 194 193 190 188 192 194 194 195 197 201 204 205 208 209 210 213 213 215 222 227 225 238 248 269 292 297 297 290 276 284 283 295 332 346 352 353 355 3 1 326 336 330 303 337 337 354 13 20 24 33 75 106 172 180 190 195 195
156 149 161 177 185 187 187 193 197 199 199 196 195 195 196 195 193 192 193 198 200 190 184 182 178 168 163 168 177 183 190 195 198 198 193 195 198 197 199 200 203 207 211 215 217 217 217 218 221 228 235 231 240 266 286 282 275 283 280 250 248 294 328 330 340 351 345 342 357 353 299 308 299 277 289 307 323 350 8 15 7 14 96 158 177 188 193 194
160 156 158 164 169 171 177 186 193 197 198 197 195 194 194 193 193 191 193 198 196 189 181 175 172 165 161 172 185 187 191 197 201 200 196 197 198 199 201 201 204 208 213 218 221 223 223 225 228 231 235 237 247 270 282 268 246 243 269 277 275 301 321 319 326 336 335 332 343 333 304 308 286 276 272 277 291 311 332 347 343 332 251 188 180 190 194 194
158 161 160 160 155 149 162 177 186 193 195 197 195 191 192 190 189 189 190 194 193 187 180 172 170 167 169 180 188 194 199 201 205 203 197 194 195 198 201 203 207 208 212 219 223 225 228 230 233 236 242 243 243 259 269 259 239 220 250 279 286 295 302 308 316 320 325 325 326 319 314 317 277 273 266 257 269 276 288 295 292 289 243 211 196 195 198 190
139 151 158 160 156 146 150 163 176 186 191 195 193 188 187 184 184 186 187 191 190 181 175 176 170 164 182 191 188 199 205 207 213 210 199 193 193 197 201 204 208 211 213 218 223 227 230 232 234 237 243 239 234 241 252 269 296 298 290 287 289 290 292 305 312 309 314 315 313 309 309 313 287 278 270 254 255 255 257 263 260 258 252 237 221 212 203 190
102 119 140 152 160 152 148 155 164 173 183 190 191 186 182 180 180 183 185 189 187 176 172 180 173 164 193 207 199 204 209 214 221 217 203 194 192 197 202 204 208 210 212 217 224 228 227 230 232 232 233 233 233 235 249 296 321 306 298 289 292 294 287 293 303 307 308 306 307 303 296 294 282 276 276 266 255 248 241 245 250 248 252 254 247 237 224 213
85 102 121 136 153 155 151 154 159 164 170 177 184 184 180 176 175 185 190 189 189 186 180 182 180 177 193 206 205 209 212 215 223 220 205 194 192 198 201 204 207 205 205 208 221 228 225 226 230 230 234 234 231 233 245 275 290 296 293 284 286 286 283 293 298 301 299 298 303 298 290 285 273 259 267 266 260 253 243 241 248 247 250 250 247 244 233 232
79 100 122 134 140 149 154 157 163 164 160 164 174 180 181 174 172 188 192 191 194 195 192 185 184 189 197 199 199 205 210 208 216 215 203 195 190 194 202 204 201 205 208 198 205 226 225 225 231 231 237 233 229 239 250 265 281 290 285 278 277 273 276 288 293 294 297 301 303 297 290 282 273 261 258 259 258 259 254 246 244 243 248 252 248 244 236 235
76 88 117 144 143 144 154 159 164 165 162 164 169 176 181 180 180 187 187 190 197 196 198 190 186 189 192 192 190 192 205 206 212 210 203 199 183 181 207 205 193 209 222 210 208 226 228 231 236 235 238 237 239 251 257 266 276 278 271 265 262 266 275 279 290 297 303 309 306 302 297 286 283 274 258 255 255 259 261 255 249 244 244 251 252 248 243 240
75 85 96 130 151 153 154 160 163 165 169 172 174 175 178 182 184 185 182 186 195 197 199 193 188 187 181 182 180 173 186 195 213 221 206 194 181 184 205 203 197 215 228 219 215 224 231 234 231 233 242 245 249 257 261 268 270 263 253 250 251 262 277 281 296 300 305 311 308 313 309 301 311 297 265 259 260 264 267 263 259 253 249 249 250 250 250 248
33 124 97 107 148 164 161 161 163 166 173 180 182 178 179 184 183 182 181 178 187 197 199 196 194 188 176 176 171 159 167 170 190 221 200 181 185 195 200 198 205 221 226 220 219 224 234 238 229 235 250 249 246 256 261 259 254 246 239 244 255 267 279 289 297 301 307 308 313 328 316 300 329 310 278 270 271 274 274 269 264 259 256 251 249 254 256 255
329 229 192 123 133 166 170 163 166 169 174 183 187 184 186 186 182 179 177 170 174 191 195 196 194 188 175 170 167 157 153 157 167 182 174 169 184 194 203 207 206 218 228 223 227 230 235 244 241 238 246 237 229 241 247 239 239 240 234 240 258 272 280 286 290 298 298 287 309 332 317 303 337 307 296 301 295 292 286 281 276 265 260 253 250 255 258 257
320 234 209 170 141 167 172 166 169 166 169 179 183 187 188 182 177 171 164 158 166 183 186 186 187 185 176 170 168 152 145 170 167 154 152 163 177 178 200 222 208 206 227 230 234 234 231 239 233 209 205 215 217 226 229 229 236 238 227 237 261 273 275 281 286 288 291 292 312 317 308 310 321 310 306 309 306 301 297 296 292 276 266 259 253 252 253 255
319 239 205 181 168 169 166 168 169 160 164 171 173 182 178 172 169 157 153 157 168 179 180 179 183 182 178 176 166 149 166 199 179 161 160 164 174 166 172 214 216 218 231 227 228 234 231 224 204 189 200 215 215 220 222 221 229 237 238 247 263 273 270 281 282 274 289 305 303 307 309 303 303 304 308 307 307 309 306 303 298 285 273 261 252 251 250 252
317 242 202 181 176 169 168 173 167 156 159 160 167 172 164 164 161 154 163 169 147 166 178 177 181 178 176 178 168 166 196 196 183 194 177 160 171 165 168 205 219 232 225 204 213 233 216 203 193 194 207 216 215 218 221 216 228 251 259 252 259 267 270 279 273 268 294 295 283 298 307 296 297 306 312 318 320 316 307 307 305 291 276 262 251 249 247 248
295 223 198 179 175 172 168 170 164 155 152 154 160 160 156 158 152 151 193 191 126 154 173 169 174 176 176 177 175 181 193 177 179 208 186 169 178 169 181 213 210 227 218 205 221 249 199 193 198 210 214 217 223 226 227 221 232 254 259 255 260 263 269 276 265 268 282 281 283 294 292 291 303 313 320 330 325 312 294 310 313 296 278 270 262 257 251 249
224 196 186 173 172 170 161 160 161 152 149 152 153 153 152 150 148 166 209 131 126 155 168 163 167 175 175 174 182 186 183 182 190 197 186 184 187 173 185 204 197 229 239 229 234 240 217 205 210 220 216 218 234 234 227 226 234 250 259 257 253 251 261 267 261 272 270 270 285 285 282 287 287 305 326 325 315 306 293 306 313 302 287 279 273 269 263 256
140 169 172 172 171 166 158 157 158 152 149 148 150 152 146 141 160 232 183 131 134 151 157 162 166 175 176 173 184 182 174 188 193 183 184 191 194 192 204 208 210 229 235 239 236 229 226 224 224 229 225 225 238 236 228 233 239 246 251 248 245 234 237 244 237 248 263 268 278 273 276 277 274 300 326 321 312 304 299 303 307 303 294 286 280 276 271 266
127 158 167 173 171 166 159 154 156 154 147 145 151 148 139 147 186 92 132 135 143 148 154 172 173 175 178 175 184 183 176 184 180 174 184 196 200 210 222 220 225 235 225 216 219 223 229 232 233 236 235 230 235 236 232 235 238 242 240 239 246 242 239 249 242 245 264 271 259 269 277 271 272 301 310 308 311 310 314 318 314 306 300 294 284 278 277 273
108 143 164 170 167 168 158 150 156 153 142 145 148 138 135 197 176 111 126 138 153 160 168 181 173 171 179 182 188 184 180 186 184 180 182 192 206 217 226 230 231 244 249 217 221 234 227 221 225 235 239 234 229 226 227 230 229 231 233 235 244 255 263 267 269 271 273 264 238 264 275 268 261 281 291 298 310 313 320 324 322 316 310 304 289 281 283 278
96 119 152 162 164 167 154 150 155 148 142 143 136 129 145 197 139 124 122 118 158 173 181 178 169 169 177 186 192 185 183 192 195 196 196 203 220 222 226 245 241 238 255 256 248 248 237 222 216 221 229 233 229 228 236 249 239 229 233 240 246 258 274 280 287 289 286 257 224 257 274 282 289 294 293 301 313 316 319 322 321 319 317 313 296 282 283 283
91 109 140 152 163 164 154 154 151 140 141 137 125 133 185 139 126 126 123 130 153 177 187 178 167 168 176 188 198 192 185 192 201 204 209 214 219 220 223 239 249 235 234 242 238 234 249 250 228 218 218 221 227 228 237 253 253 237 231 239 247 254 262 275 284 291 300 289 246 248 271 298 317 307 291 298 319 327 325 324 322 318 316 314 302 285 282 286
84 101 130 150 164 161 156 155 147 141 141 132 121 153 150 128 128 126 143 151 148 152 165 168 167 173 181 185 194 196 191 193 206 207 210 216 221 230 237 235 241 229 218 236 253 239 241 241 217 217 214 212 220 226 228 235 241 233 230 236 243 247 252 267 273 266 278 278 258 264 275 286 297 272 278 306 321 332 327 324 324 314 305 302 298 289 288 290
80 87 103 142 161 160 158 153 145 145 140 128 130 153 129 122 130 130 143 155 148 143 148 165 173 177 184 182 182 192 198 200 208 208 205 209 221 230 231 232 236 218 211 233 255 254 255 249 214 207 210 213 222 230 231 234 234 228 236 242 235 236 245 257 269 258 253 262 259 271 281 291 298 277 323 328 323 339 327 313 315 310 295 291 292 291 292 293
75 73 68 97 147 158 156 150 148 146 136 121 136 148 128 113 124 130 137 149 147 141 140 178 172 166 178 184 173 174 192 197 198 205 201 195 214 224 212 227 244 221 215 232 240 245 263 260 219 198 209 215 215 224 234 241 237 227 228 237 229 233 234 224 248 265 252 262 261 249 272 279 286 308 330 340 334 335 312 292 302 317 303 293 293 294 295 292
70 65 53 73 115 149 149 147 149 142 130 121 128 137 128 114 117 129 131 140 143 136 126 165 162 162 170 168 161 169 184 190 192 203 204 194 213 229 216 220 237 224 224 245 244 245 261 266 224 200 217 222 207 220 231 234 238 225 222 229 229 234 239 222 239 260 259 273 271 257 281 241 181 279 298 309 315 306 285 280 298 319 310 299 297 295 293 290
81 73 58 84 104 136 141 143 145 137 134 146 140 133 132 118 111 122 125 130 134 125 126 140 142 154 158 151 154 163 170 179 182 193 206 198 205 235 231 221 231 241 253 269 256 246 245 252 245 218 219 227 217 222 235 230 230 223 218 224 221 218 234 234 237 253 267 281 272 266 283 256 146 260 276 288 304 297 296 293 295 315 317 306 302 299 296 292
89 90 105 104 107 131 132 134 143 139 138 152 146 138 138 126 114 118 119 123 125 121 128 138 141 145 146 151 160 157 161 174 172 176 198 190 182 223 241 227 239 261 266 277 263 247 233 240 250 237 225 231 228 230 248 244 238 232 226 229 227 220 229 239 237 244 259 270 270 273 284 278 285 286 280 302 325 322 321 295 290 308 317 313 311 309 304 299
99 123 136 119 122 129 124 131 148 149 141 145 151 146 142 135 126 125 125 123 124 126 131 140 150 151 150 156 164 162 160 163 170 177 176 172 180 199 222 222 248 273 266 268 253 246 240 240 252 250 239 240 246 251 254 252 248 238 231 234 240 232 230 241 251 246 248 258 266 273 283 289 304 298 289 326 351 340 325 294 290 302 311 318 320 316 313 307
117 148 141 134 138 127 120 129 145 148 145 145 150 147 143 142 135 134 141 138 138 145 143 149 154 153 158 162 158 159 167 173 186 191 179 173 197 215 220 235 267 285 306 288 264 258 254 248 255 261 255 248 249 257 259 257 256 243 230 233 244 241 237 247 258 259 247 246 251 252 249 262 279 283 276 321 357 345 329 301 289 294 305 316 321 320 319 311
111 138 144 155 156 136 131 142 139 141 148 143 137 139 143 147 144 144 155 160 170 173 171 189 190 180 188 182 168 165 172 184 205 203 194 187 214 223 226 255 275 293 303 280 276 271 258 257 263 265 259 243 233 235 245 245 247 244 237 242 247 242 240 247 253 252 248 247 254 263 276 291 289 286 283 311 334 329 323 308 282 283 298 310 318 321 320 312
98 125 153 167 172 165 169 172 156 151 157 149 141 150 152 155 168 175 173 178 194 197 199 216 216 212 215 210 215 222 187 174 204 210 202 209 250 244 249 270 277 288 291 282 285 275 258 263 268 264 263 252 241 249 261 254 253 251 245 246 249 244 239 242 245 246 256 283 279 273 292 309 290 280 288 314 322 316 313 304 278 275 290 303 313 320 318 315
135 150 172 178 183 189 196 195 184 172 170 168 171 180 182 189 197 199 196 194 206 214 221 232 231 230 231 213 237 277 244 219 216 215 214 229 252 256 264 270 268 275 284 288 293 288 277 271 265 262 266 268 275 292 287 259 253 252 245 239 243 248 242 238 242 246 256 274 265 261 273 278 276 280 299 318 316 312 310 300 276 270 282 298 310 316 317 316
174 185 188 184 191 196 195 199 200 196 194 197 201 204 208 219 224 223 223 219 219 225 233 240 236 237 247 240 241 294 269 252 248 238 236 244 251 258 271 275 271 269 276 284 287 288 288 275 264 266 270 270 276 281 266 246 245 250 247 239 236 243 241 236 243 255 258 257 260 272 264 256 269 295 319 312 302 307 307 290 270 269 276 291 306 312 317 317
189 199 192 182 187 194 197 203 206 207 209 210 213 214 214 222 228 230 235 239 240 239 238 247 246 243 248 247 246 265 268 266 268 255 249 255 258 260 275 285 279 272 271 275 272 270 276 271 265 274 280 278 279 278 264 251 251 252 248 242 235 235 239 243 250 261 260 256 272 302 278 260 274 298 310 303 298 305 306 287 274 277 278 283 299 306 314 316
183 191 191 183 184 190 197 207 210 212 214 211 211 213 212 221 230 236 242 246 248 246 240 247 255 253 254 256 258 266 266 263 267 266 264 267 268 267 273 279 275 270 267 268 266 264 268 268 266 279 286 279 275 277 268 258 255 252 246 243 237 234 239 246 252 254 253 257 263 264 265 270 281 286 289 293 292 295 300 294 284 280 277 278 291 300 310 314
168 173 182 188 193 196 201 207 209 212 218 215 214 215 217 225 233 238 242 241 243 247 243 246 257 260 261 264 263 266 266 261 262 269 272 274 275 275 274 269 266 266 265 266 266 263 267 272 274 282 287 277 268 270 267 258 256 253 247 242 238 240 243 247 251 251 251 260 259 251 262 277 280 280 284 289 287 286 293 296 280 269 271 274 281 293 302 306
157 162 167 177 189 200 206 208 205 206 222 225 223 226 227 230 235 241 247 245 244 251 254 257 266 271 272 274 271 269 268 266 265 267 269 271 271 272 272 269 267 268 265 265 266 265 266 276 281 281 278 270 262 259 262 263 262 258 252 244 237 238 243 247 252 251 250 258 262 263 276 277 272 277 282 285 288 290 300 301 270 253 258 261 265 280 291 296
67 97 151 161 176 203 211 214 207 210 230 238 236 240 245 246 250 256 263 260 255 257 263 269 275 278 280 281 278 275 274 273 271 269 269 270 269 269 270 269 269 268 264 263 266 266 266 270 275 275 270 265 258 258 268 271 264 256 250 243 238 235 242 253 252 243 247 256 254 253 258 256 259 269 273 280 289 293 305 308 272 249 250 249 248 261 274 283
Height
3164 3165 3165 3166 3166 3167 3167 3167 3168 3168 3168 3168 3169 3169 3169 3170 3170 3171 3171 3171 3172 3172 3172 3173 3173 3173 3174 3174 3175 3175 3175 3176 3176 3177 3177 3177 3177 3179 3180 3181 3183 3184 3186 3187 3188 3189 3189 3190 3190 3190 3190 3190 3190 3190 3190 3189 3189 3188 3189 3190 3190 3190 3190 3188 3188 3188 3187 3188 3187 3186 3186 3186 3186 3185 3186 3185 3186 3186 3186 3186 3187 3187 3187 3187 3187 3188 3189 3189
3163 3163 3164 3164 3165 3166 3166 3167 3167 3168 3168 3168 3168 3169 3169 3170 3170 3170 3171 3171 3172 3172 3172 3172 3173 3173 3174 3174 3175 3175 3176 3176 3176 3176 3177 3177 3178 3179 3181 3182 3183 3185 3186 3187 3188 3189 3190 3190 3191 3190 3190 3191 3191 3191 3191 3190 3190 3189 3190 3191 3191 3191 3190 3189 3189 3188 3188 3188 3187 3186 3186 3186 3186 3186 3186 3186 3186 3186 3186 3186 3186 3186 3186 3187 3187 3188 3189 3189
3161 3162 3162 3163 3164 3165 3165 3166 3166 3167 3167 3168 3168 3168 3169 3169 3170 3170 3171 3171 3171 3172 3172 3172 3173 3173 3174 3174 3175 3175 3176 3176 3176 3176 3177 3177 3178 3179 3181 3182 3184 3185 3186 3187 3189 3190 3190 3191 3191 3191 3191 3192 3192 3192 3192 3191 3191 3191 3191 3193 3193 3191 3191 3190 3189 3189 3188 3188 3187 3187 3186 3186 3186 3186 3186 3186 3186 3186 3186 3186 3186 3186 3186 3186 3187 3188 3189 3189
3160 3161 3161 3162 3163 3163 3164 3165 3165 3166 3166 3167 3167 3168 3168 3169 3169 3170 3170 3171 3171 3171 3171 3172 3172 3173 3173 3174 3175 3175 3176 3176 3176 3176 3177 3177 3178 3180 3181 3183 3184 3186 3187 3188 3189 3190 3191 3191 3192 3192 3192 3193 3194 3193 3193 3192 3192 3192 3192 3193 3193 3192 3192 3191 3190 3189 3188 3188 3188 3187 3187 3186 3186 3186 3186 3186 3186 3187 3186 3186 3186 3186 3186 3186 3187 3188 3189 3189
3159 3160 3160 3161 3161 3162 3163 3164 3164 3165 3165 3166 3167 3167 3168 3168 3169 3169 3170 3170 3170 3171 3171 3171 3172 3173 3173 3174 3174 3175 3176 3177 3176 3176 3177 3177 3178 3180 3181 3183 3185 3186 3187 3189 3190 3191 3192 3192 3192 3192 3193 3194 3195 3195 3194 3193 3193 3193 3193 3193 3193 3192 3192 3192 3191 3190 3189 3188 3188 3188 3187 3187 3187 3186 3186 3186 3186 3187 3187 3186 3186 3186 3186 3186 3187 3188 3189 3190
3159 3159 3159 3160 3161 3161 3162 3163 3163 3164 3164 3165 3166 3166 3167 3168 3168 3168 3169 3169 3170 3170 3170 3171 3171 3172 3173 3173 3174 3175 3176 3176 3176 3176 3177 3177 3178 3180 3181 3183 3185 3186 3188 3189 3190 3191 3192 3192 3193 3193 3194 3195 3195 3195 3195 3194 3193 3194 3195 3194 3193 3193 3193 3192 3191 3191 3190 3189 3188 3188 3188 3187 3187 3186 3186 3186 3186 3186 3186 3186 3186 3186 3186 3186 3187 3188 3189 3190
3158 3158 3159 3159 3160 3160 3161 3161 3162 3162 3163 3164 3165 3166 3166 3167 3167 3168 3168 3169 3169 3169 3170 3170 3171 3171 3172 3173 3174 3174 3175 3175 3175 3176 3177 3177 3178 3180 3181 3183 3185 3186 3188 3189 3190 3191 3192 3193 3193 3193 3194 3196 3195 3194 3194 3194 3194 3195 3195 3194 3194 3193 3193 3192 3192 3191 3190 3190 3189 3189 3188 3187 3187 3187 3186 3186 3186 3186 3186 3186 3186 3186 3186 3186 3187 3188 3188 3189
3158 3158 3158 3159 3159 3160 3160 3161 3161 3161 3162 3163 3164 3165 3165 3166 3166 3167 3167 3168 3168 3169 3169 3170 3170 3171 3172 3172 3173 3174 3175 3175 3175 3176 3177 3177 3178 3180 3181 3183 3185 3186 3188 3190 3191 3192 3193 3193 3194 3194 3195 3196 3195 3194 3194 3195 3195 3195 3195 3194 3194 3194 3193 3193 3192 3191 3191 3190 3190 3189 3189 3188 3187 3187 3186 3186 3186 3186 3186 3186 3186 3186 3186 3186 3187 3187 3188 3189
3157 3157 3158 3158 3159 3159 3160 3160 3160 3161 3161 3162 3163 3164 3164 3165 3166 3166 3167 3167 3168 3168 3169 3169 3170 3170 3171 3172 3173 3174 3175 3175 3175 3176 3177 3178 3178 3180 3182 3183 3185 3186 3188 3190 3191 3192 3193 3193 3194 3194 3195 3195 3195 3194 3194 3195 3196 3195 3194 3194 3194 3194 3193 3193 3192 3192 3191 3191 3190 3190 3189 3189 3188 3187 3187 3186 3186 3186 3186 3186 3186 3186 3186 3187 3187 3187 3188 3189
3157 3157 3157 3158 3158 3159 3159 3160 3160 3160 3161 3161 3162 3163 3164 3164 3165 3166 3166 3167 3167 3168 3168 3169 3169 3170 3171 3172 3173 3175 3175 3175 3175 3176 3177 3178 3178 3180 3181 3183 3185 3187 3188 3190 3191 3192 3192 3193 3194 3194 3195 3195 3195 3195 3195 3195 3195 3194 3194 3194 3194 3194 3194 3193 3193 3192 3192 3191 3191 3190 3190 3189 3188 3188 3188 3187 3187 3186 3186 3186 3186 3186 3186 3187 3187 3187 3188 3188
3156 3156 3157 3157 3158 3158 3159 3159 3159 3160 3160 3161 3162 3162 3163 3164 3164 3165 3166 3166 3167 3168 3168 3169 3169 3170 3170 3171 3173 3174 3174 3175 3175 3176 3177 3178 3179 3180 3181 3183 3185 3187 3188 3190 3191 3191 3192 3192 3193 3195 3195 3195 3196 3196 3195 3195 3195 3194 3194 3195 3194 3194 3194 3193 3193 3192 3191 3191 3191 3190 3190 3189 3189 3188 3188 3188 3187 3187 3186 3186 3186 3186 3186 3187 3187 3187 3188 3188
3156 3156 3156 3157 3157 3158 3158 3159 3159 3159 3160 3161 3161 3162 3163 3163 3164 3165 3165 3166 3167 3167 3168 3168 3169 3169 3170 3171 3172 3173 3174 3175 3175 3176 3176 3178 3179 3180 3181 3183 3184 3186 3188 3189 3190 3190 3191 3192 3193 3194 3195 3195 3196 3197 3196 3195 3195 3195 3195 3195 3195 3194 3194 3193 3193 3192 3191 3191 3191 3190 3190 3189 3189 3189 3189 3188 3187 3187 3187 3187 3186 3186 3186 3187 3187 3187 3188 3188
3156 3156 3156 3156 3157 3157 3158 3158 3159 3159 3160 3160 3161 3161 3162 3163 3164 3164 3165 3166 3167 3167 3168 3168 3169 3169 3170 3171 3172 3173 3174 3175 3175 3176 3176 3177 3178 3180 3181 3183 3184 3185 3187 3187 3188 3189 3190 3192 3193 3194 3195 3195 3196 3196 3195 3195 3195 3195 3196 3195 3195 3194 3194 3193 3193 3192 3191 3191 3190 3190 3189 3189 3189 3189 3189 3188 3188 3187 3187 3187 3187 3186 3186 3186 3187 3187 3187 3188
3155 3155 3156 3156 3156 3157 3157 3158 3158 3159 3159 3160 3160 3161 3162 3163 3163 3164 3165 3166 3166 3167 3167 3168 3169 3169 3170 3171 3172 3173 3173 3174 3175 3176 3176 3177 3178 3179 3181 3182 3184 3185 3186 3186 3187 3189 3190 3192 3193 3194 3195 3195 3196 3196 3196 3196 3196 3196 3196 3195 3195 3194 3193 3193 3193 3192 3191 3190 3190 3190 3190 3189 3189 3189 3189 3189 3188 3188 3188 3188 3187 3187 3186 3186 3187 3187 3187 3188
3155 3155 3155 3156 3156 3156 3157 3157 3158 3158 3159 3159 3160 3161 3161 3162 3163 3164 3164 3165 3166 3167 3167 3168 3169 3169 3170 3171 3172 3172 3173 3174 3174 3175 3176 3177 3178 3179 3180 3182 3183 3184 3186 3187 3188 3189 3190 3192 3193 3194 3195 3195 3196 3197 3197 3197 3197 3197 3195 3193 3194 3194 3193 3193 3193 3192 3191 3190 3190 3190 3190 3190 3189 3189 3189 3189 3188 3188 3188 3188 3188 3187 3187 3187 3186 3187 3187 3188
3155 3155 3155 3155 3156 3156 3157 3157 3157 3158 3159 3159 3160 3160 3161 3162 3163 3164 3164 3165 3166 3167 3167 3168 3169 3170 3171 3172 3172 3172 3173 3173 3174 3175 3176 3176 3177 3178 3180 3181 3182 3184 3185 3186 3187 3189 3190 3192 3193 3194 3195 3196 3197 3198 3198 3197 3196 3196 3195 3193 3193 3194 3194 3193 3192 3192 3191 3190 3190 3189 3189 3189 3189 3188 3188 3188 3188 3188 3188 3188 3188 3188 3187 3187 3187 3187 3187 3187
3154 3154 3155 3155 3155 3156 3156 3157 3157 3158 3158 3159 3160 3160 3161 3162 3163 3163 3164 3165 3166 3167 3168 3169 3169 3171 3172 3172 3172 3173 3173 3173 3174 3174 3175 3176 3177 3178 3179 3180 3182 3183 3185 3186 3187 3189 3190 3192 3193 3194 3195 3196 3198 3198 3197 3195 3193 3194 3194 3194 3193 3194 3194 3193 3192 3191 3191 3190 3189 3189 3188 3188 3189 3187 3187 3188 3188 3188 3188 3188 3188 3188 3187 3187 3187 3187 3187 3187
3154 3154 3154 3155 3155 3155 3156 3156 3157 3157 3158 3159 3159 3160 3161 3162 3163 3163 3164 3165 3166 3167 3168 3169 3170 3172 3173 3172 3172 3173 3173 3173 3174 3174 3175 3176 3176 3177 3179 3180 3181 3183 3185 3186 3187 3189 3191 3192 3193 3195 3196 3196 3197 3197 3196 3193 3193 3193 3195 3194 3194 3194 3194 3193 3193 3191 3190 3190 3189 3188 3187 3187 3188 3187 3186 3187 3187 3187 3187 3188 3187 3187 3187 3187 3187 3187 3187 3187
3154 3154 3154 3154 3155 3155 3156 3156 3156 3157 3157 3158 3159 3160 3161 3162 3162 3163 3164 3165 3166 3167 3168 3169 3170 3172 3172 3172 3172 3173 3173 3173 3174 3174 3175 3175 3176 3177 3179 3180 3181 3183 3185 3187 3188 3189 3190 3192 3193 3194 3195 3195 3196 3196 3195 3194 3194 3195 3195 3195 3194 3194 3193 3193 3192 3191 3190 3189 3188 3188 3187 3187 3188 3188 3186 3186 3186 3186 3186 3186 3186 3187 3187 3187 3187 3187 3187 3187
3154 3154 3154 3154 3155 3155 3155 3156 3156 3157 3157 3158 3159 3160 3161 3162 3163 3163 3164 3164 3165 3166 3167 3168 3169 3171 3171 3171 3172 3173 3173 3174 3174 3174 3175 3175 3176 3178 3179 3180 3182 3184 3185 3188 3189 3188 3189 3192 3192 3193 3194 3195 3195 3194 3194 3194 3195 3195 3195 3195 3194 3193 3193 3192 3192 3191 3190 3189 3188 3187 3186 3186 3186 3187 3186 3184 3184 3185 3185 3185 3185 3185 3186 3186 3186 3186 3186 3186
3154 3154 3154 3154 3154 3155 3155 3156 3156 3156 3157 3158 3158 3159 3160 3161 3162 3163 3163 3164 3165 3166 3167 3168 3169 3170 3171 3171 3172 3173 3173 3174 3174 3174 3175 3175 3176 3178 3180 3181 3183 3184 3185 3187 3187 3186 3188 3190 3191 3192 3193 3193 3193 3193 3193 3194 3194 3195 3195 3194 3194 3193 3192 3192 3191 3190 3189 3188 3188 3186 3185 3184 3184 3185 3184 3183 3183 3183 3183 3184 3184 3184 3184 3184 3184 3185 3185 3185
3154 3154 3154 3154 3154 3154 3155 3155 3156 3156 3157 3157 3158 3158 3159 3160 3161 3162 3163 3164 3165 3166 3167 3168 3169 3170 3171 3172 3172 3173 3174 3174 3174 3174 3175 3175 3177 3180 3181 3181 3184 3185 3184 3185 3186 3187 3188 3189 3190 3192 3191 3190 3191 3192 3192 3193 3194 3194 3194 3193 3193 3192 3191 3191 3190 3190 3189 3188 3187 3185 3184 3183 3183 3183 3182 3181 3182 3182 3182 3182 3182 3182 3182 3182 3182 3183 3183 3183
3154 3154 3153 3154 3154 3154 3155 3155 3156 3156 3157 3157 3157 3158 3159 3160 3160 3161 3163 3164 3165 3166 3167 3168 3169 3170 3171 3172 3173 3173 3174 3175 3175 3175 3175 3176 3178 3179 3180 3182 3184 3184 3183 3184 3186 3188 3188 3188 3188 3189 3188 3189 3191 3191 3191 3193 3193 3193 3193 3192 3191 3191 3190 3189 3189 3188 3187 3187 3185 3184 3182 3181 3182 3182 3181 3180 3180 3180 3180 3180 3180 3180 3180 3180 3181 3181 3181 3182
3154 3153 3153 3153 3154 3154 3154 3155 3155 3156 3156 3157 3157 3157 3158 3159 3160 3161 3162 3164 3165 3166 3166 3167 3169 3170 3171 3172 3173 3174 3175 3176 3176 3176 3175 3176 3178 3178 3180 3182 3183 3183 3183 3184 3185 3187 3187 3186 3186 3187 3186 3188 3190 3190 3191 3192 3192 3191 3191 3191 3190 3190 3190 3189 3189 3188 3186 3185 3184 3183 3181 3180 3181 3182 3180 3179 3179 3179 3179 3178 3178 3179 3179 3179 3179 3179 3179 3180
3153 3153 3153 3153 3153 3154 3154 3155 3155 3155 3156 3156 3157 3157 3158 3159 3160 3161 3162 3164 3166 3166 3166 3167 3168 3170 3171 3172 3173 3174 3175 3175 3176 3176 3175 3176 3178 3179 3180 3180 3181 3183 3184 3183 3183 3185 3186 3184 3184 3186 3186 3187 3189 3190 3190 3190 3190 3189 3189 3190 3190 3190 3190 3189 3189 3187 3185 3183 3183 3183 3180 3178 3180 3181 3180 3178 3178 3177 3177 3177 3177 3177 3177 3177 3177 3178 3178 3178
3153 3153 3153 3153 3153 3153 3154 3154 3155 3155 3156 3156 3157 3157 3158 3159 3160 3161 3163 3165 3166 3166 3166 3167 3169 3170 3171 3172 3173 3174 3175 3176 3175 3176 3176 3176 3177 3178 3180 3180 3180 3182 3182 3182 3183 3183 3184 3183 3183 3185 3186 3187 3188 3189 3189 3189 3189 3188 3187 3188 3189 3189 3189 3188 3188 3187 3184 3182 3183 3183 3181 3178 3178 3179 3179 3178 3177 3176 3176 3175 3175 3175 3175 3175 3176 3176 3176 3177
3152 3152 3152 3153 3153 3153 3153 3154 3154 3155 3156 3156 3156 3157 3158 3159 3160 3161 3163 3164 3165 3165 3166 3167 3168 3169 3170 3172 3173 3174 3176 3176 3176 3176 3176 3176 3177 3178 3180 3181 3181 3181 3180 3181 3182 3181 3181 3182 3183 3184 3185 3187 3187 3187 3187 3187 3188 3187 3185 3187 3187 3188 3188 3188 3187 3186 3184 3183 3182 3182 3182 3180 3178 3178 3178 3177 3176 3176 3175 3174 3174 3173 3173 3173 3173 3174 3174 3175
3151 3151 3151 3152 3152 3153 3153 3154 3154 3155 3155 3156 3156 3156 3157 3159 3160 3161 3162 3161 3163 3165 3166 3167 3167 3169 3170 3172 3173 3174 3175 3175 3176 3176 3176 3176 3177 3178 3179 3181 3181 3181 3180 3180 3181 3180 3180 3182 3183 3183 3185 3185 3186 3187 3186 3186 3187 3186 3185 3186 3186 3187 3187 3186 3186 3184 3184 3183 3181 3180 3182 3180 3178 3176 3176 3175 3176 3176 3175 3174 3172 3172 3172 3172 3172 3172 3172 3173
3150 3150 3150 3151 3152 3152 3153 3154 3154 3155 3155 3155 3156 3156 3157 3159 3160 3161 3161 3160 3163 3165 3165 3166 3168 3169 3170 3171 3172 3173 3174 3175 3176 3176 3176 3176 3177 3178 3179 3180 3180 3180 3179 3179 3179 3180 3180 3181 3181 3182 3183 3184 3185 3186 3185 3185 3186 3185 3185 3185 3185 3185 3185 3185 3185 3184 3184 3182 3179 3179 3181 3179 3177 3176 3175 3174 3174 3175 3174 3173 3172 3171 3171 3171 3171 3171 3171 3171
3150 3150 3150 3151 3151 3152 3153 3154 3154 3154 3155 3155 3156 3157 3158 3159 3160 3161 3160 3160 3163 3165 3165 3166 3167 3169 3170 3171 3173 3173 3174 3175 3175 3175 3176 3177 3177 3177 3178 3179 3179 3179 3180 3179 3178 3179 3179 3179 3179 3180 3181 3183 3184 3184 3184 3184 3184 3184 3184 3185 3185 3185 3185 3184 3184 3183 3182 3179 3177 3179 3181 3179 3177 3174 3174 3174 3173 3173 3173 3172 3171 3170 3170 3170 3170 3170 3170 3170
3150 3150 3150 3150 3151 3152 3153 3153 3154 3155 3155 3155 3156 3157 3158 3160 3160 3159 3158 3161 3163 3164 3165 3166 3167 3168 3170 3172 3173 3173 3174 3175 3175 3175 3176 3177 3177 3178 3178 3179 3179 3179 3180 3179 3178 3178 3179 3178 3178 3179 3180 3181 3182 3182 3183 3183 3183 3183 3184 3184 3184 3183 3183 3182 3181 3182 3180 3176 3177 3178 3179 3179 3176 3173 3173 3173 3173 3172 3171 3171 3170 3169 3168 3168 3169 3169 3169 3169
3150 3150 3150 3151 3151 3152 3153 3153 3154 3155 3155 3156 3157 3158 3159 3160 3161 3159 3159 3162 3163 3164 3166 3167 3167 3168 3170 3172 3173 3173 3174 3175 3175 3176 3177 3178 3178 3178 3178 3179 3179 3178 3177 3177 3177 3178 3178 3178 3178 3178 3179 3180 3181 3182 3182 3182 3182 3183 3183 3184 3182 3179 3179 3178 3177 3177 3174 3174 3177 3178 3177 3177 3175 3174 3174 3173 3173 3171 3170 3170 3169 3168 3167 3167 3167 3168 3168 3168
3150 3150 3151 3151 3151 3152 3153 3153 3154 3155 3155 3156 3157 3158 3160 3160 3160 3160 3161 3162 3163 3164 3165 3166 3167 3168 3170 3172 3173 3173 3174 3175 3175 3176 3177 3177 3178 3178 3178 3178 3178 3177 3175 3176 3177 3176 3175 3176 3177 3178 3177 3178 3179 3180 3180 3179 3180 3181 3181 3181 3179 3176 3177 3178 3175 3173 3172 3173 3176 3177 3176 3174 3173 3174 3174 3172 3172 3170 3169 3169 3168 3167 3166 3166 3166 3166 3166 3166
3151 3151 3151 3152 3152 3153 3153 3154 3154 3155 3156 3157 3158 3159 3160 3160 3160 3161 3162 3162 3162 3163 3164 3165 3166 3167 3169 3171 3172 3172 3173 3174 3175 3175 3176 3177 3177 3177 3177 3177 3177 3177 3177 3176 3176 3175 3173 3171 3173 3175 3175 3175 3177 3178 3178 3177 3178 3179 3179 3179 3177 3175 3176 3176 3174 3173 3172 3173 3175 3176 3174 3172 3171 3172 3172 3171 3170 3169 3168 3168 3167 3166 3166 3165 3165 3165 3165 3165
3151 3152 3152 3152 3153 3153 3153 3154 3155 3156 3156 3157 3158 3160 3160 3161 3161 3162 3162 3162 3163 3163 3164 3164 3166 3167 3169 3170 3171 3171 3173 3173 3174 3175 3176 3176 3176 3176 3176 3176 3176 3176 3177 3176 3174 3174 3173 3171 3170 3172 3173 3174 3175 3177 3177 3177 3177 3177 3178 3178 3175 3175 3175 3174 3173 3173 3173 3173 3173 3174 3173 3171 3171 3171 3171 3170 3169 3168 3168 3167 3166 3166 3165 3164 3164 3164 3164 3164
3152 3152 3152 3153 3153 3153 3154 3154 3155 3156 3157 3157 3160 3161 3161 3161 3161 3162 3162 3162 3162 3163 3164 3165 3166 3168 3169 3170 3170 3171 3172 3173 3173 3174 3175 3175 3175 3175 3175 3175 3175 3175 3175 3175 3174 3173 3172 3170 3170 3171 3171 3172 3174 3175 3175 3176 3175 3175 3176 3175 3173 3174 3174 3173 3173 3173 3174 3173 3171 3171 3172 3170 3170 3170 3170 3169 3168 3168 3167 3166 3166 3165 3164 3164 3163 3163 3163 3163
3153 3153 3153 3153 3154 3154 3154 3155 3156 3157 3157 3158 3160 3161 3161 3161 3161 3161 3161 3162 3162 3162 3164 3165 3166 3167 3168 3169 3169 3171 3171 3172 3172 3173 3173 3173 3174 3174 3173 3174 3173 3173 3174 3174 3174 3173 3172 3170 3170 3171 3171 3171 3172 3173 3173 3173 3174 3174 3174 3172 3172 3173 3174 3174 3173 3171 3172 3171 3169 3170 3170 3169 3169 3169 3168 3168 3168 3167 3167 3166 3165 3164 3164 3163 3162 3162 3162 3161
3153 3154 3154 3154 3154 3155 3155 3155 3156 3157 3158 3160 3161 3161 3161 3162 3162 3161 3162 3162 3163 3163 3164 3166 3166 3166 3167 3168 3169 3170 3170 3171 3172 3172 3172 3172 3173 3173 3172 3172 3172 3172 3172 3172 3173 3173 3172 3170 3169 3170 3171 3170 3171 3172 3171 3171 3171 3171 3171 3171 3171 3171 3171 3173 3173 3170 3169 3169 3168 3168 3169 3169 3169 3169 3168 3167 3167 3167 3166 3165 3164 3163 3163 3162 3162 3161 3161 3160
3154 3155 3155 3155 3155 3155 3156 3156 3157 3158 3159 3162 3163 3162 3162 3162 3162 3162 3163 3163 3163 3164 3165 3166 3165 3166 3167 3167 3168 3169 3170 3170 3171 3171 3171 3171 3172 3172 3171 3172 3171 3171 3171 3172 3172 3172 3172 3171 3168 3169 3170 3170 3170 3170 3169 3169 3169 3169 3169 3170 3170 3170 3169 3170 3170 3168 3167 3167 3167 3167 3167 3166 3168 3168 3167 3167 3167 3165 3164 3164 3163 3163 3162 3161 3161 3160 3159 3159
3155 3156 3157 3156 3156 3156 3157 3157 3158 3159 3161 3162 3162 3162 3162 3162 3163 3163 3163 3164 3164 3165 3165 3166 3166 3167 3167 3167 3168 3169 3169 3170 3170 3170 3170 3170 3171 3171 3170 3170 3171 3170 3170 3171 3171 3171 3172 3171 3169 3168 3169 3169 3168 3168 3168 3168 3168 3168 3168 3168 3168 3169 3169 3169 3168 3167 3166 3165 3165 3166 3165 3164 3165 3167 3166 3166 3165 3164 3163 3163 3162 3162 3161 3161 3160 3159 3158 3158
3156 3157 3158 3157 3157 3157 3158 3159 3159 3161 3162 3162 3162 3162 3162 3163 3163 3164 3164 3164 3165 3165 3165 3166 3166 3167 3167 3168 3168 3169 3169 3170 3170 3170 3170 3170 3170 3170 3170 3170 3170 3170 3170 3170 3170 3170 3170 3170 3169 3168 3167 3166 3166 3167 3167 3167 3167 3167 3167 3166 3166 3167 3168 3168 3166 3166 3167 3165 3163 3163 3163 3162 3163 3165 3165 3164 3164 3163 3162 3162 3161 3161 3161 3160 3159 3158 3157 3157
3157 3159 3158 3158 3158 3158 3159 3160 3161 3161 3162 3162 3162 3162 3163 3163 3163 3164 3164 3165 3165 3165 3165 3165 3166 3166 3167 3167 3168 3168 3169 3169 3169 3170 3170 3169 3169 3169 3169 3169 3169 3169 3169 3170 3170 3169 3168 3168 3167 3166 3165 3165 3165 3165 3166 3165 3165 3165 3164 3164 3164 3164 3165 3166 3164 3164 3165 3164 3163 3162 3163 3163 3164 3164 3164 3163 3162 3162 3161 3161 3160 3160 3160 3159 3158 3157 3156 3156
3158 3159 3159 3158 3159 3159 3160 3162 3162 3162 3162 3162 3163 3163 3163 3163 3164 3164 3165 3165 3165 3165 3166 3166 3166 3166 3167 3167 3167 3168 3168 3169 3169 3169 3169 3169 3168 3168 3168 3168 3168 3169 3169 3169 3169 3167 3167 3167 3166 3164 3164 3164 3164 3164 3164 3163 3163 3163 3163 3163 3164 3163 3163 3164 3163 3164 3163 3163 3163 3162 3161 3164 3164 3163 3163 3162 3161 3161 3160 3159 3159 3159 3158 3158 3157 3156 3155 3155
3158 3158 3158 3159 3160 3160 3161 3163 3163 3163 3162 3162 3163 3163 3163 3164 3164 3164 3165 3165 3165 3165 3166 3166 3166 3166 3166 3167 3167 3167 3168 3168 3168 3168 3168 3168 3168 3168 3168 3168 3168 3168 3168 3168 3168 3167 3166 3166 3165 3163 3162 3161 3161 3162 3162 3162 3162 3162 3162 3163 3163 3162 3163 3163 3163 3164 3162 3160 3162 3160 3158 3162 3164 3162 3162 3161 3160 3160 3159 3158 3158 3158 3157 3157 3156 3155 3155 3154
3158 3158 3159 3159 3160 3160 3161 3162 3162 3163 3163 3163 3163 3164 3164 3164 3164 3164 3165 3165 3165 3165 3165 3166 3166 3166 3166 3167 3167 3167 3167 3168 3168 3168 3168 3168 3168 3167 3167 3167 3167 3167 3167 3166 3166 3166 3166 3165 3164 3163 3161 3159 3158 3160 3161 3161 3162 3162 3162 3163 3162 3162 3163 3163 3162 3162 3161 3160 3163 3161 3160 3162 3163 3162 3161 3160 3159 3159 3158 3157 3157 3157 3157 3156 3156 3155 3154 3154
3158 3159 3159 3159 3159 3160 3160 3161 3162 3162 3163 3163 3163 3163 3164 3164 3164 3164 3164 3165 3165 3165 3165 3165 3165 3166 3166 3167 3167 3167 3167 3167 3168 3167 3168 3168 3167 3166 3166 3166 3166 3166 3166 3165 3165 3165 3165 3164 3163 3163 3162 3160 3159 3160 3161 3161 3161 3161 3161 3162 3162 3162 3162 3162 3161 3161 3161 3162 3162 3162 3162 3163 3162 3161 3160 3160 3159 3158 3157 3157 3156 3156 3156 3156 3155 3154 3154 3153
3157 3158 3158 3159 3159 3160 3160 3160 3161 3162 3162 3162 3163 3163 3163 3163 3164 3164 3164 3164 3165 3165 3165 3165 3165 3166 3166 3166 3167 3167 3166 3166 3167 3167 3167 3166 3166 3166 3166 3166 3165 3165 3165 3165 3165 3164 3164 3164 3162 3161 3161 3161 3161 3160 3160 3160 3160 3160 3160 3160 3161 3162 3161 3161 3160 3160 3161 3161 3159 3159 3161 3162 3161 3160 3159 3159 3159 3157 3156 3156 3155 3155 3155 3155 3154 3154 3153 3153
3156 3156 3157 3157 3158 3159 3159 3160 3160 3161 3161 3162 3162 3162 3163 3163 3163 3163 3163 3163 3164 3164 3165 3165 3164 3165 3165 3165 3166 3166 3165 3166 3166 3165 3165 3165 3165 3166 3166 3165 3164 3164 3165 3164 3163 3163 3163 3163 3162 3160 3160 3160 3160 3159 3158 3158 3158 3158 3158 3158 3159 3160 3160 3159 3159 3159 3160 3160 3159 3159 3160 3160 3159 3159 3158 3158 3157 3156 3155 3155 3155 3155 3155 3154 3154 3153 3153 3153
3155 3155 3156 3156 3157 3158 3158 3159 3159 3160 3160 3161 3161 3161 3162 3162 3162 3162 3162 3162 3163 3163 3164 3164 3163 3163 3164 3164 3164 3164 3164 3165 3165 3163 3163 3164 3164 3164 3165 3165 3164 3163 3163 3163 3162 3162 3162 3162 3161 3159 3158 3158 3158 3157 3156 3156 3156 3156 3156 3157 3157 3158 3158 3158 3158 3158 3159 3159 3158 3159 3159 3158 3157 3157 3157 3157 3156 3155 3154 3154 3154 3154 3154 3153 3153 3153 3153 3152
3154 3155 3155 3156 3156 3157 3157 3158 3158 3159 3159 3159 3160 3160 3161 3161 3161 3161 3161 3161 3161 3161 3162 3162 3162 3162 3162 3162 3162 3162 3162 3162 3162 3161 3161 3161 3162 3162 3162 3162 3162 3161 3161 3161 3161 3161 3161 3160 3159 3158 3157 3156 3156 3156 3155 3155 3155 3154 3154 3155 3156 3156 3157 3157 3157 3157 3157 3157 3157 3157 3157 3157 3156 3155 3156 3156 3154 3153 3153 3152 3153 3153 3153 3153 3152 3152 3152 3152
3154 3154 3155 3155 3155 3156 3156 3157 3157 3158 3158 3158 3158 3159 3159 3159 3160 3160 3160 3160 3160 3160 3160 3160 3160 3160 3160 3160 3160 3160 3159 3159 3159 3159 3158 3158 3159 3159 3159 3159 3159 3158 3159 3159 3159 3158 3159 3158 3158 3158 3156 3154 3154 3155 3154 3154 3153 3152 3152 3153 3153 3154 3154 3155 3155 3155 3155 3155 3155 3155 3155 3156 3155 3154 3154 3154 3153 3152 3152 3151 3151 3151 3151 3151 3151 3151 3151 3151
3154 3154 3154 3155 3155 3155 3156 3156 3157 3157 3157 3157 3157 3157 3158 3158 3158 3158 3159 3158 3158 3159 3159 3159 3159 3159 3159 3158 3157 3157 3157 3156 3156 3156 3155 3155 3155 3155 3155 3155 3155 3155 3156 3156 3156 3156 3156 3156 3157 3157 3155 3153 3153 3153 3153 3152 3151 3149 3150 3150 3151 3151 3152 3153 3153 3153 3152 3153 3154 3154 3153 3154 3153 3153 3153 3152 3152 3151 3151 3150 3150 3150 3150 3150 3150 3150 3150 3150